Центральная Россия

Зональный Центр Единой Системы Организации Воздушного Движения (ЗЦ ЕС ОрВД) Екатеринбург является структурным подразделением дивизиона VATRUS сети VATSIM.

В состав ЗЦ входят РПИ Екатеринбурга и Тюмени, которые вместе покрывают воздушное пространство над территорией Уральского федерального округа Российской Федерации общей площадью более 2 млн км². Зональный центр располагается над Уральским горным хребтом от южных границ до северных морей, являясь, таким образом, соединительным звеном Европейской и Азиатской частями России.

В сети ВАТСИМ обслуживание воздушного движения над территорией ЗЦ Екатеринбург осуществляет позиция RU-WSC_FSS, позывной "Центральная Россия-Контроль", частота 134.500.

Мы в Контакте

Лого Центральная Россия
Руководство

Kirill Rudavin

Куратор
Контакты

FSS региона
Обозначение
RU-WSC_FSS
Позывной
Урал-Радар
Частота
134.500
Примечание
Top-down
Инструкторы региона
Andrey Tonkachev * (Senior Student)
Anton Agaev (Instructor)
Dmitriy Bannov (Instructor)
Igor Shitov * (Controller)
Ivan Malygin * (Senior Student)
Kirill Ardatov * (Senior Student)
Kirill Rudavin (Instructor)
Maxim Gerasimov (Instructor)
Vadim Filev (Instructor)
Victor Rudnov (Instructor)
Включает в себя

РПИ Екатеринбург
РПИ Тюмень

Диспетчеры региона

Диспетчер Рейтинг Допуски *
Aleksandr Sokolov Instructor USSV_CTR , USTV_CTR
Alexander Pervov Senior Student USTV_CTR  *, USSS_APP, USPP_APP, USCC_APP, USCM_TWR, USRR_APP(USRR+USRK+USRO+USNN) , USTR_R_APP
Alexander Shkut Controller USSV_CTR
Andrew Zolotuhin Controller USTV_CTR
Anton Agaev Instructor USSV_CTR , USTV_CTR
Dmitriy Bannov Instructor USSV_CTR , USTV_CTR
Ekaterina Romanova Instructor USSV_CTR
Igor Shitov Controller USSV_CTR , USTV_CTR  *, USRR_APP(USRR+USNN+USRK+USRO)
Kirill Rudavin Instructor USSV_CTR , USTV_CTR
Maxim Gerasimov Instructor USSV_CTR , USTV_CTR
Sergey Arkasov Instructor USSV_CTR
Vadim Filev Instructor USSV_CTR
Victor Rudnov Instructor USSV_CTR
Vladimir Anisimov Senior Controller USSV_CTR
Aleksey Garmash Student 2 USSS_TWR, USSS_R_APP*
Alexander Akhundov Student 2 USSS_TWR
Alexandr Jaschinsky Student 2 USSS_TWR
Alexandr Mishin Student 2 USTR_GND, USTR_R_APP*
Alexey Krymsky Student USSS_GND, USSS_TWR*
Andrey Gridchin Controller USSS_APP
Andrey Shestakov Senior Student USPP_APP, USSS_APP, USCC_APP, USCM_TWR, USUU_TWR, USTR_R_APP
Andrey Tarasov Senior Student USSS_APP
Andrey Tonkachev Senior Student USSS_APP, USSS_R_APP, USSS_TWR, USSS_GND
Andrey Usyaev Student 2 USTR_R_APP*, USTR_GND
Andrey Zaitsev Student USSS_GND
Arseniy Ishmaev Student USSS_GND, USSS_TWR*
Artem Iakovlev Student USSS_GND, USSS_TWR*
Daniil Grachev Student 2 USSS_TWR, USRR_APP(USRR+USRO+USRK+USNN) , USTR_GND
Daniil Lukin Student USSS_GND
Daniil Omelchenko Student 2 USRR_TWR, USTR_TWR!!!
Dima Platonov Student 2 USRR_TWR, USTR_GND, USRR_APP(USRR+USNN+USRK+USRO)
Eldar Aliev Student 2 USPP_TWR, USCC_TWR, USSS_APP*
Elisey Palamarchuk Student USTR_GND
Ilya Pyrenkov Student 2 USSS_GND, USCC_TWR, USPP_TWR
Ilya Zbanchuk Student 2 USTR_R_APP*, USTR_TWR!!!, USTR_GND
Kirill Ardatov Senior Student USSS_TWR, USRR_APP(USRR+USRO+USRK+USNN) , USTR_TWR, USDD_TWR
Kirill Shabunin Senior Controller USSS_APP
Konstantin Norkin Student 2 USSS_TWR, USTR_R_APP*, USTR_TWR
Mikhail Govyrin Student USSS_TWR*, USSS_GND
Mikhail Romanov Student 2 USSS_GND, USSS_R_APP*, USSS_TWR
Nika Avdalov Student 2 USCC_TWR, USSS_TWR, USPP_TWR, USTR_TWR
Nikolay Shvaychenko Student USTR_TWR*, USTR_GND
Oleg Shpuntov Senior Student USSS_GND, USSS_APP
Pavel Pavlovich Student USSS_GND
Semyon Fedotov Student USSS_GND
Semyon Saprykin Student USSS_GND
Sergei Milantev Student 2 USSS_TWR*, USSS_GND
Sergey Tayshin Student 2 USTR_GND
Vlad Poddubnyy Student USSS_GND
Vladislav Kepkov Student 2 USCC_R_APP*
Vsevolod Skryabin Student 2 USSS_TWR!!!, USRR_TWR, USRR_APP(USRR+USNN+USRK+USRO) , USTR_TWR
Yan Sheyfer Senior Student USNN_R_APP, USNN_TWR

Аэропорты региона

ICAO Город Название Погода
USSS Екатеринбург Кольцово USSS 250730Z 15004MPS 9999 -RA OVC006 02/02 Q1024 R08R/290040 NOSIG RMK QFE748/0997
USHQ Белоярский Белоярский
USHB Берёзово Берёзово
USII Ижевск Ижевск
USKK Киров Киров
USRK Когалым Когалым
USUU Курган Курган
USCM Магнитогорск Магнитогорск USCM 250730Z 03002MPS 350V090 9999 OVC013CB 08/04 Q1023 R36/290155 TEMPO 2000 SHRA VV003 RMK QFE728
USMM Надым Надым
USNN Нижневартовск Нижневартовск USNN 250730Z 28004MPS CAVOK M03/M10 Q1034 R03/0///65 NOSIG RMK QFE772
USMU Новый Уренгой Новый Уренгой
USRO Ноябрьск Ноябрьск
USHN Нягань Нягань
USPP Пермь Пермь USPP 250730Z 31003MPS 270V360 9999 OVC009 03/01 Q1024 R21/090060 NOSIG RMK QFE757
USDA Сабетта Сабетта USDA 250730Z 27002MPS 9999 FEW002 M08/M10 Q1035 R04/320155 NOSIG RMK QFE775/1034
USDD Салехард Салехард
USHS Советский Советский
USRR Сургут Сургут USRR 250730Z 01002MPS CAVOK M02/M11 Q1035 R25/CLRD60 NOSIG RMK QFE771
USTR Тюмень Тюмень USTR 250730Z 15005MPS 3000 -SHSNRA BKN008CB BKN030 01/M01 Q1030 R12/290055 R03/290055 TEMPO 1000 SHSNRA SCT005 BKN016CB
USHU Урай Урай
USHH Ханты-Мансийск Ханты-Мансийск USHH 250730Z 09003MPS 040V110 CAVOK M00/M10 Q1034 R06/010060 NOSIG
USCC Челябинск Челябинск USCC 250730Z 15005MPS 9999 BKN010 04/04 Q1024 R09/290045 NOSIG RMK QFE747
USDB Бованенково Бованенково
USHI Игрим Игрим
USDP Красноселькуп Красноселькуп
USDK Мыс Каменный Мыс Каменный
USDS Тарко-Сале Тарко-Сале
USTJ Тобольск Тобольск
USDO Толька Толька
USMQ Ямбург Ямбург